�N����,����,�~����,�C��,���x,�C��,����,���ϕ���,�ő�u�ԕ���,�ő厞����,���˗�,�I�_���x,�n�����x,�ő啗���N��,DTYPE
"17/03/07","00:10",0.0,4.7,84.7,1001.5,320.0,2.3,3.9,332.0,0.00,2.4,7.9,"00:08:48",1
"17/03/07","00:20",0.0,5.0,86.0,1001.5,308.1,3.5,6.5,321.2,0.00,2.9,7.7,"00:15:28",1
"17/03/07","00:30",0.0,5.1,85.1,1001.7,312.1,2.8,4.3,327.8,0.00,2.8,7.5,"00:23:44",1
"17/03/07","00:40",0.0,5.0,85.1,1001.7,287.8,2.3,3.6,315.1,0.00,2.7,7.7,"00:30:08",1
"17/03/07","00:50",0.0,5.2,85.5,1001.9,291.2,2.2,4.5,317.8,0.00,3.0,7.6,"00:45:04",1
"17/03/07","01:00",0.0,5.3,84.8,1001.9,300.4,2.1,3.3,324.0,0.00,3.0,7.6,"00:58:16",1
"17/03/07","01:10",0.0,5.2,85.0,1001.9,290.3,1.7,2.4,264.9,0.00,2.9,7.6,"01:09:04",1
"17/03/07","01:20",0.0,5.4,84.7,1001.7,266.1,2.1,2.9,264.1,0.00,3.1,7.7,"01:19:52",1
"17/03/07","01:30",0.0,5.4,84.0,1002.2,289.1,2.5,3.7,320.8,0.00,3.0,7.4,"01:24:48",1
"17/03/07","01:40",0.0,5.4,83.9,1002.2,295.5,2.5,4.0,315.3,0.00,2.9,7.7,"01:36:48",1
"17/03/07","01:50",0.0,5.4,83.6,1001.9,293.8,2.7,4.5,317.4,0.00,2.9,7.7,"01:47:36",1
"17/03/07","02:00",0.0,5.3,83.3,1001.9,295.9,2.6,3.6,313.5,0.00,2.7,7.6,"01:53:44",1
"17/03/07","02:10",0.0,5.2,83.2,1001.9,296.3,1.6,2.6,317.5,0.00,2.6,7.7,"02:09:04",1
"17/03/07","02:20",0.0,5.2,83.0,1002.2,276.4,2.2,2.9,302.3,0.00,2.6,7.5,"02:15:36",1
"17/03/07","02:30",0.0,5.3,82.1,1001.9,274.9,2.5,3.5,247.6,0.00,2.5,7.7,"02:23:04",1
"17/03/07","02:40",0.0,5.3,81.8,1002.2,266.6,2.3,3.4,244.9,0.00,2.5,7.6,"02:31:44",1
"17/03/07","02:50",0.0,5.3,82.1,1002.2,310.1,2.8,4.2,326.9,0.00,2.5,7.6,"02:43:44",1
"17/03/07","03:00",0.0,5.2,82.4,1002.2,301.7,2.6,4.4,313.7,0.00,2.5,7.7,"02:51:20",1
"17/03/07","03:10",0.0,5.2,82.2,1001.9,317.8,3.4,5.0,324.8,0.00,2.5,7.4,"03:04:32",1
"17/03/07","03:20",0.0,5.1,82.2,1001.9,297.0,2.8,3.9,336.4,0.00,2.4,7.5,"03:18:24",1
"17/03/07","03:30",0.0,5.1,82.3,1002.2,293.1,3.1,5.1,334.3,0.00,2.4,7.4,"03:26:08",1
"17/03/07","03:40",0.0,5.1,82.2,1001.9,281.7,2.7,3.7,295.4,0.00,2.4,7.5,"03:31:36",1
"17/03/07","03:50",0.0,5.0,82.0,1001.7,288.4,2.8,6.5,306.4,0.00,2.2,7.2,"03:46:48",1
"17/03/07","04:00",0.0,5.0,82.0,1001.7,273.6,2.8,5.9,304.3,0.00,2.2,7.6,"03:50:08",1
"17/03/07","04:10",0.0,5.0,82.1,1001.7,280.9,2.7,3.9,282.4,0.00,2.2,7.4,"04:02:00",1
"17/03/07","04:20",0.0,4.8,82.2,1001.7,292.0,2.7,4.5,307.7,0.00,2.1,7.3,"04:10:56",1
"17/03/07","04:30",0.0,4.7,82.6,1001.7,285.2,2.8,4.4,299.0,0.00,2.0,7.4,"04:28:56",1
"17/03/07","04:40",0.0,4.7,82.5,1001.9,290.9,3.6,6.2,326.6,0.00,2.0,7.5,"04:34:40",1
"17/03/07","04:50",0.0,4.6,82.5,1001.7,283.9,3.4,5.6,309.9,0.00,1.9,7.3,"04:45:28",1
"17/03/07","05:00",0.0,4.5,83.5,1001.7,294.2,3.9,5.8,313.1,0.00,2.0,7.2,"04:52:56",1
"17/03/07","05:10",0.0,4.5,84.3,1001.9,292.2,3.5,5.6,301.7,0.00,2.1,7.0,"05:03:36",1
"17/03/07","05:20",0.0,4.5,84.6,1001.7,304.0,4.1,7.2,321.4,0.00,2.2,7.2,"05:15:44",1
"17/03/07","05:30",0.0,4.3,84.7,1001.2,314.1,3.7,6.3,325.3,0.00,2.0,7.2,"05:24:24",1
"17/03/07","05:40",0.0,4.3,84.9,1001.5,312.7,4.0,9.0,337.2,0.00,2.0,7.1,"05:34:32",1
"17/03/07","05:50",0.0,4.3,85.7,1001.7,304.5,4.4,9.6,325.2,0.00,2.2,7.2,"05:40:16",1
"17/03/07","06:00",0.0,4.2,86.8,1001.7,304.8,4.2,5.7,301.1,0.00,2.2,7.1,"05:50:08",1
"17/03/07","06:10",0.0,4.0,87.8,1001.5,305.2,3.6,6.0,315.6,0.00,2.2,6.9,"06:09:16",1
"17/03/07","06:20",0.0,4.0,88.0,1001.7,314.8,4.5,6.4,325.1,0.00,2.2,6.9,"06:10:32",1
"17/03/07","06:30",0.0,4.0,87.6,1001.5,302.6,3.9,5.5,325.8,0.00,2.2,7.1,"06:24:16",1
"17/03/07","06:40",0.0,4.1,87.4,1001.5,297.6,3.6,4.3,304.4,0.00,2.2,6.9,"06:35:20",1
"17/03/07","06:50",0.0,4.2,86.9,1001.7,280.0,3.0,3.7,264.9,0.00,2.3,7.0,"06:45:06",1
"17/03/07","07:00",0.0,4.4,86.7,1001.5,290.0,4.0,6.5,308.9,0.00,2.4,6.9,"06:59:20",1
"17/03/07","07:10",0.0,4.3,86.9,1001.2,295.8,4.1,8.1,330.0,0.00,2.4,6.8,"07:02:10",1
"17/03/07","07:20",0.0,4.3,87.2,1001.5,279.4,3.7,3.7,291.9,0.00,2.4,7.0,"07:13:18",1
"17/03/07","07:30",0.0,4.4,87.2,1001.7,260.5,3.7,3.7,261.4,0.01,2.5,6.9,"07:29:42",1
"17/03/07","07:40",0.0,4.4,87.4,1001.9,305.2,5.2,7.3,320.5,0.01,2.5,7.0,"07:37:22",1
"17/03/07","07:50",0.0,4.3,88.0,1001.9,299.1,4.5,7.2,320.4,0.01,2.5,6.9,"07:48:02",1
"17/03/07","08:00",0.0,4.4,88.3,1002.4,292.4,4.6,8.0,316.2,0.04,2.7,6.9,"07:55:18",1
"17/03/07","08:10",0.0,4.6,88.0,1002.2,290.7,4.0,6.8,304.3,0.07,2.8,6.7,"08:03:16",1
"17/03/07","08:20",0.0,4.7,86.9,1002.4,287.0,4.0,5.7,310.0,0.05,2.7,6.8,"08:17:00",1
"17/03/07","08:30",0.0,4.6,87.1,1002.9,298.2,4.2,6.6,318.6,0.05,2.7,7.1,"08:25:10",1
"17/03/07","08:40",0.2,4.5,87.9,1002.4,279.3,2.8,4.4,304.3,0.05,2.7,6.8,"08:31:38",1
"17/03/07","08:50",0.0,4.5,88.5,1002.4,277.7,2.6,4.1,275.8,0.07,2.8,7.0,"08:44:24",1
"17/03/07","09:00",0.0,5.4,87.1,1002.6,296.0,3.5,5.6,317.2,0.19,3.5,7.0,"08:51:34",1
"17/03/07","09:10",0.0,6.5,84.4,1002.6,291.5,3.6,5.2,294.7,0.32,4.1,7.2,"09:08:24",1
"17/03/07","09:20",0.0,6.8,81.8,1002.9,281.5,3.6,5.7,323.6,0.32,4.0,7.4,"09:15:06",1
"17/03/07","09:30",0.0,6.7,82.3,1002.9,282.3,3.4,5.6,306.8,0.31,3.9,7.4,"09:26:42",1
"17/03/07","09:40",0.0,5.9,82.9,1003.1,312.8,3.9,6.3,330.9,0.17,3.3,7.4,"09:33:52",1
"17/03/07","09:50",0.0,6.7,83.4,1003.1,276.9,2.8,6.6,245.1,0.41,4.1,7.6,"09:42:58",1
"17/03/07","10:00",0.0,7.2,78.8,1003.1,297.0,3.4,5.4,331.3,0.37,3.8,7.8,"09:56:40",1
"17/03/07","10:10",0.0,7.0,76.2,1003.1,298.5,4.1,7.4,351.8,0.37,3.1,8.1,"10:08:28",1
"17/03/07","10:20",0.0,7.3,73.3,1003.4,297.8,3.9,6.8,340.9,0.46,2.9,8.2,"10:14:24",1
"17/03/07","10:30",0.0,7.8,69.8,1003.6,314.6,4.6,8.5,321.3,0.49,2.7,8.3,"10:24:40",1
"17/03/07","10:40",0.0,8.0,65.5,1003.4,314.9,5.6,10.5,333.5,0.46,2.0,8.4,"10:39:38",1
"17/03/07","10:50",0.0,8.0,63.5,1003.6,324.9,6.5,10.4,337.9,0.50,1.5,8.7,"10:40:08",1
"17/03/07","11:00",0.0,8.2,61.1,1003.4,312.1,5.1,9.3,312.6,0.49,1.2,8.8,"10:50:24",1
"17/03/07","11:10",0.0,7.6,63.2,1003.1,304.0,3.5,7.0,328.2,0.19,1.1,8.8,"11:08:18",1
"17/03/07","11:20",0.0,7.6,58.2,1003.6,312.0,4.7,9.8,325.9,0.26,0.0,9.1,"11:19:42",1
"17/03/07","11:30",0.0,7.5,59.4,1002.9,315.8,6.2,10.3,343.3,0.24,0.1,9.1,"11:21:42",1
"17/03/07","11:40",0.0,8.0,56.1,1002.9,276.6,4.2,7.4,268.3,0.35,-0.2,8.9,"11:36:52",1
"17/03/07","11:50",0.0,6.9,61.7,1003.8,291.3,5.1,11.4,316.8,0.08,0.1,8.8,"11:47:30",1
"17/03/07","12:00",0.0,5.9,74.1,1003.4,316.5,6.4,7.7,299.3,0.20,1.7,8.9,"11:50:52",1
"17/03/07","12:10",0.0,7.2,68.6,1003.1,313.9,4.2,8.0,338.1,0.59,1.9,9.0,"12:08:34",1
"17/03/07","12:20",0.0,7.7,66.2,1003.1,325.4,4.2,8.6,333.4,0.57,1.8,9.3,"12:18:28",1
"17/03/07","12:30",0.0,7.8,64.7,1003.4,331.7,5.2,14.6,337.9,0.53,1.6,9.1,"12:27:50",1
"17/03/07","12:40",0.2,8.5,58.8,1002.9,333.4,5.4,9.0,356.7,0.58,0.9,9.3,"12:37:08",1
"17/03/07","12:50",0.0,8.0,55.7,1003.4,337.4,5.9,13.3,338.7,0.38,-0.3,9.5,"12:49:26",1
"17/03/07","13:00",0.0,8.3,54.5,1002.9,325.4,6.2,12.5,329.5,0.50,-0.3,9.3,"12:50:20",1
"17/03/07","13:10",0.0,8.4,49.6,1002.6,307.0,5.2,9.6,335.1,0.46,-1.5,9.7,"13:07:20",1
"17/03/07","13:20",0.0,8.2,47.9,1002.4,304.0,5.6,13.7,339.5,0.50,-2.1,9.7,"13:18:36",1
"17/03/07","13:30",0.0,8.0,48.5,1002.4,289.1,5.0,8.5,258.8,0.24,-2.2,9.7,"13:22:46",1
"17/03/07","13:40",0.0,7.6,48.4,1002.9,297.8,5.4,12.0,336.5,0.13,-2.6,9.8,"13:39:54",1
"17/03/07","13:50",0.0,8.1,50.8,1002.9,302.4,5.6,10.2,322.7,0.36,-1.4,9.7,"13:49:48",1
"17/03/07","14:00",0.0,8.8,49.7,1002.2,302.1,5.1,7.8,330.6,0.52,-1.1,9.8,"13:58:24",1
"17/03/07","14:10",0.0,8.5,47.3,1002.2,275.0,4.0,7.5,327.3,0.39,-2.0,9.6,"14:01:38",1
"17/03/07","14:20",0.0,8.0,48.5,1001.7,302.1,3.7,7.0,312.2,0.19,-2.2,9.9,"14:14:00",1
"17/03/07","14:30",0.0,8.0,49.4,1002.2,329.5,4.0,8.1,352.5,0.14,-1.9,9.8,"14:22:48",1
"17/03/07","14:40",0.0,7.8,49.8,1002.2,319.8,4.0,9.4,309.4,0.16,-2.0,9.8,"14:32:00",1
"17/03/07","14:50",0.0,8.5,50.1,1001.9,335.1,5.6,11.6,336.3,0.39,-1.3,10.0,"14:42:08",1
"17/03/07","15:00",0.0,8.5,52.7,1001.9,335.6,3.7,8.1,343.7,0.40,-0.6,9.7,"14:56:24",1
"17/03/07","15:10",0.0,8.8,51.3,1001.9,316.5,3.9,11.4,344.4,0.38,-0.7,9.8,"15:02:08",1
"17/03/07","15:20",0.0,8.7,49.6,1001.9,321.2,2.5,5.0,339.1,0.31,-1.2,9.8,"15:14:56",1
"17/03/07","15:30",0.0,8.9,47.8,1002.4,310.8,3.5,6.7,225.7,0.33,-1.5,9.9,"15:29:44",1
"17/03/07","15:40",0.0,8.2,47.4,1002.2,305.0,5.1,9.8,339.4,0.31,-2.3,9.9,"15:39:46",1
"17/03/07","15:50",0.0,8.4,48.9,1002.2,307.5,4.9,8.7,337.5,0.28,-1.7,10.0,"15:47:30",1
"17/03/07","16:00",0.0,8.2,46.8,1002.2,311.2,4.2,8.5,336.2,0.26,-2.5,9.9,"15:58:20",1
"17/03/07","16:10",0.0,7.8,48.6,1002.2,305.4,5.4,8.5,328.5,0.18,-2.3,9.8,"16:02:02",1
"17/03/07","16:20",0.0,7.3,49.1,1002.4,318.2,5.7,11.2,334.0,0.09,-2.6,9.8,"16:10:40",1
"17/03/07","16:30",0.0,7.7,48.3,1002.4,315.6,5.0,8.9,326.9,0.16,-2.5,9.9,"16:21:04",1
"17/03/07","16:40",0.0,7.1,50.2,1002.2,293.1,4.6,7.2,335.1,0.05,-2.5,9.6,"16:38:44",1
"17/03/07","16:50",0.0,7.5,52.7,1002.2,324.4,3.4,6.8,320.6,0.12,-1.5,9.6,"16:47:20",1
"17/03/07","17:00",0.0,7.3,53.3,1002.2,331.8,4.9,8.0,334.2,0.10,-1.5,9.4,"16:54:48",1
"17/03/07","17:10",0.0,6.8,54.7,1002.2,334.7,5.1,9.7,350.4,0.08,-1.6,9.5,"17:05:04",1
"17/03/07","17:20",0.0,6.5,56.4,1002.2,330.8,5.0,9.0,338.5,0.06,-1.5,9.3,"17:16:48",1
"17/03/07","17:30",0.0,5.8,58.1,1002.4,335.2,5.2,8.8,327.7,0.01,-1.8,9.1,"17:21:08",1
"17/03/07","17:40",0.0,5.0,64.3,1002.6,335.8,6.2,10.4,351.6,0.00,-1.1,8.9,"17:37:38",1
"17/03/07","17:50",0.0,4.3,68.3,1002.6,326.2,5.9,8.6,339.9,0.00,-1.0,8.9,"17:49:36",1
"17/03/07","18:00",0.0,4.3,64.1,1002.6,324.7,6.5,10.5,317.2,0.00,-1.8,8.9,"17:56:06",1
"17/03/07","18:10",0.0,4.2,63.6,1003.1,321.5,6.6,12.1,309.2,0.00,-2.0,8.9,"18:03:12",1
"17/03/07","18:20",0.0,4.1,62.8,1002.9,317.4,5.6,8.8,336.6,0.00,-2.3,8.5,"18:15:34",1
"17/03/07","18:30",0.0,4.0,62.1,1003.1,314.6,5.5,9.8,330.8,0.00,-2.6,8.4,"18:24:10",1
"17/03/07","18:40",0.0,3.9,62.7,1003.4,318.9,5.2,8.5,348.3,0.00,-2.5,8.2,"18:36:46",1
"17/03/07","18:50",0.0,3.7,64.8,1003.4,325.2,5.7,9.5,322.4,0.00,-2.3,8.1,"18:44:22",1
"17/03/07","19:00",0.0,3.5,65.9,1003.1,324.9,5.6,8.3,320.8,0.00,-2.2,8.0,"18:56:34",1
"17/03/07","19:10",0.0,3.5,66.2,1003.1,324.4,5.1,12.0,326.7,0.00,-2.2,7.9,"19:04:14",1
"17/03/07","19:20",0.0,3.3,66.3,1003.8,309.9,4.1,8.2,339.2,0.00,-2.3,7.8,"19:10:48",1
"17/03/07","19:30",0.0,3.3,66.3,1003.6,317.7,4.0,8.0,333.2,0.00,-2.3,7.8,"19:28:08",1
"17/03/07","19:40",0.0,3.3,66.2,1003.8,320.5,5.0,8.1,322.4,0.00,-2.4,7.5,"19:37:30",1
"17/03/07","19:50",0.0,3.1,66.2,1003.6,314.2,3.9,7.7,342.7,0.00,-2.5,7.6,"19:40:32",1
"17/03/07","20:00",0.0,3.1,65.9,1003.8,315.9,4.7,9.0,340.6,0.00,-2.6,7.6,"19:55:48",1
"17/03/07","20:10",0.0,2.9,66.6,1003.6,299.4,3.4,6.5,329.6,0.00,-2.7,7.4,"20:01:20",1
"17/03/07","20:20",0.0,2.8,68.2,1003.4,287.1,3.4,5.6,285.2,0.00,-2.4,7.3,"20:19:44",1
"17/03/07","20:30",0.0,2.6,69.3,1003.8,300.7,3.7,6.8,330.6,0.00,-2.4,7.3,"20:22:24",1
"17/03/07","20:40",0.0,2.5,70.0,1003.8,300.1,3.2,5.7,324.1,0.00,-2.4,7.1,"20:36:24",1
"17/03/07","20:50",0.0,2.4,70.2,1003.8,292.9,2.8,5.5,326.0,0.00,-2.4,7.0,"20:48:16",1
"17/03/07","21:00",0.0,2.3,71.0,1003.8,285.8,2.8,4.1,321.6,0.00,-2.4,6.9,"20:52:40",1
"17/03/07","21:10",0.0,2.3,71.8,1004.1,275.2,2.6,4.2,312.7,0.00,-2.2,7.0,"21:00:08",1
"17/03/07","21:20",0.0,2.3,72.7,1003.8,275.9,3.0,6.4,264.5,0.00,-2.1,6.9,"21:18:40",1
"17/03/07","21:30",0.0,2.2,72.4,1004.1,283.3,3.0,6.0,314.4,0.00,-2.2,6.7,"21:22:00",1
"17/03/07","21:40",0.0,2.0,73.6,1004.1,294.8,3.0,4.8,308.5,0.00,-2.2,6.7,"21:36:50",1
"17/03/07","21:50",0.0,1.9,74.3,1003.8,298.4,2.8,4.8,313.0,0.00,-2.1,6.7,"21:44:42",1
"17/03/07","22:00",0.0,1.7,75.0,1004.1,298.3,2.7,4.9,314.0,0.00,-2.2,6.4,"21:51:06",1
"17/03/07","22:10",0.0,1.6,75.8,1003.8,295.4,2.8,4.2,317.8,0.00,-2.2,6.6,"22:00:54",1
"17/03/07","22:20",0.0,1.5,75.6,1003.8,298.9,2.5,4.2,321.8,0.00,-2.3,6.6,"22:11:10",1
"17/03/07","22:30",0.0,1.5,75.4,1003.6,298.6,2.2,3.6,316.7,0.00,-2.3,6.4,"22:20:26",1
"17/03/07","22:40",0.0,1.5,75.2,1003.4,287.1,2.2,3.3,315.4,0.00,-2.4,6.4,"22:32:12",1
"17/03/07","22:50",0.0,1.3,75.2,1003.4,296.5,1.8,3.5,307.8,0.00,-2.6,6.5,"22:46:40",1
"17/03/07","23:00",0.0,0.9,76.4,1003.1,298.4,1.6,2.7,329.8,0.00,-2.7,6.2,"22:50:56",1
"17/03/07","23:10",0.0,0.9,77.3,1003.4,294.2,1.8,2.9,286.6,0.00,-2.6,5.9,"23:04:40",1
"17/03/07","23:20",0.0,0.7,77.8,1003.4,309.0,2.2,3.2,313.4,0.00,-2.7,6.0,"23:14:20",1
"17/03/07","23:30",0.0,0.7,78.7,1003.4,308.2,1.7,3.2,308.4,0.00,-2.5,6.0,"23:24:16",1
"17/03/07","23:40",0.0,0.7,79.1,1002.6,302.5,1.8,3.6,342.6,0.00,-2.5,6.0,"23:38:00",1
"17/03/07","23:50",0.0,0.8,79.2,1003.4,298.4,2.1,3.4,306.7,0.00,-2.3,6.2,"23:47:52",1
"17/03/07","24:00",0.0,1.0,78.6,1002.9,304.2,3.1,4.9,319.7,0.00,-2.3,6.1,"23:54:50",1
